When you browse on this site, cookies collect data to enhance your experience and personalize the content and advertising you see.
Visit our Privacy Policy to learn more. By continuing to use the site, you agree to this use of cookies and data.
  • In Spain
  • List of Countries
  • For 7 days
  • Water Temperature
  • Satellite Maps
  • Weather Map
  • Weather Widgets
  • user-avatar
    Login

    Hourly Weather Bangalore

    Today, 21 July, Sunday

    Time Temperature Precipitation Wind Pressure Humidity
    00:00 +23°C° 0 mm 5 mps 679 mmHg 84%
    01:00 +22°C° 0 mm 5 mps 679 mmHg 84%
    02:00 +22°C° 0 mm 5 mps 679 mmHg 84%
    03:00 +22°C° 0 mm 5 mps 678 mmHg 84%
    04:00 +22°C° 0 mm 6 mps 678 mmHg 85%
    05:00 +22°C° 0 mm 6 mps 678 mmHg 85%
    06:00 +23°C° 0 mm 6 mps 679 mmHg 83%
    07:00 +23°C° 0 mm 6 mps 680 mmHg 80%
    08:00 +24°C° 0 mm 7 mps 680 mmHg 77%
    09:00 +26°C° 0 mm 7 mps 680 mmHg 74%
    10:00 +27°C° 0 mm 7 mps 680 mmHg 72%
    11:00 +28°C° 0 mm 7 mps 681 mmHg 69%
    12:00 +28°C° 0.2 mm 7 mps 680 mmHg 66%
    13:00 +29°C° 0.2 mm 7 mps 679 mmHg 63%
    14:00 +30°C° 0.2 mm 7 mps 679 mmHg 60%
    15:00 +29°C° 0.3 mm 7 mps 679 mmHg 63%
    16:00 +28°C° 0.3 mm 7 mps 678 mmHg 66%
    17:00 +28°C° 0.3 mm 7 mps 678 mmHg 68%
    18:00 +27°C° 0.2 mm 6 mps 679 mmHg 72%
    19:00 +26°C° 0.2 mm 6 mps 679 mmHg 75%
    20:00 +25°C° 0.2 mm 5 mps 679 mmHg 79%
    21:00 +25°C° 0.1 mm 5 mps 680 mmHg 80%
    22:00 +25°C° 0.1 mm 5 mps 680 mmHg 82%
    23:00 +23°C° 0.1 mm 5 mps 680 mmHg 84%

    Tomorrow, 22 July, Monday

    Time Temperature Precipitation Wind Pressure Humidity
    00:00 +23°C° 0.1 mm 4 mps 679 mmHg 85%
    01:00 +23°C° 0.1 mm 4 mps 679 mmHg 85%
    02:00 +24°C° 0.1 mm 3 mps 678 mmHg 86%
    03:00 +23°C° 0.1 mm 4 mps 678 mmHg 87%
    04:00 +23°C° 0.1 mm 4 mps 678 mmHg 87%
    05:00 +22°C° 0.1 mm 4 mps 678 mmHg 88%
    06:00 +23°C° 0.1 mm 4 mps 678 mmHg 85%
    07:00 +25°C° 0.1 mm 4 mps 679 mmHg 82%
    08:00 +25°C° 0.1 mm 4 mps 679 mmHg 79%
    09:00 +26°C° 0.3 mm 5 mps 679 mmHg 76%
    10:00 +27°C° 0.3 mm 5 mps 680 mmHg 72%
    11:00 +28°C° 0.3 mm 5 mps 680 mmHg 68%
    12:00 +28°C° 1 mm 5 mps 679 mmHg 69%
    13:00 +27°C° 1 mm 4 mps 679 mmHg 70%
    14:00 +27°C° 1 mm 3 mps 678 mmHg 71%
    15:00 +27°C° 2 mm 3 mps 678 mmHg 74%
    16:00 +26°C° 2 mm 2 mps 677 mmHg 78%
    17:00 +25°C° 2 mm 2 mps 677 mmHg 81%
    18:00 +25°C° 3.4 mm 2 mps 678 mmHg 84%
    19:00 +24°C° 3.4 mm 2 mps 678 mmHg 87%
    20:00 +24°C° 3.4 mm 2 mps 678 mmHg 90%
    21:00 +24°C° 2.6 mm 3 mps 678 mmHg 90%
    22:00 +22°C° 2.6 mm 3 mps 678 mmHg 91%
    23:00 +22°C° 2.6 mm 4 mps 678 mmHg 91%

    Day after tomorrow, 23 July, Tuesday

    Time Temperature Precipitation Wind Pressure Humidity
    00:00 +22°C° 1.8 mm 4 mps 678 mmHg 92%
    01:00 +22°C° 1.8 mm 4 mps 677 mmHg 92%
    02:00 +22°C° 1.8 mm 4 mps 677 mmHg 92%
    03:00 +22°C° 0.7 mm 4 mps 677 mmHg 92%
    04:00 +22°C° 0.7 mm 4 mps 676 mmHg 92%
    05:00 +22°C° 0.7 mm 4 mps 676 mmHg 92%
    06:00 +22°C° 0.5 mm 4 mps 677 mmHg 92%
    07:00 +22°C° 0.5 mm 4 mps 677 mmHg 92%
    08:00 +21°C° 0.5 mm 5 mps 678 mmHg 92%
    09:00 +22°C° 0.3 mm 5 mps 678 mmHg 89%
    10:00 +23°C° 0.3 mm 5 mps 678 mmHg 86%
    11:00 +25°C° 0.3 mm 5 mps 678 mmHg 83%
    12:00 +24°C° 0.2 mm 6 mps 678 mmHg 81%
    13:00 +24°C° 0.2 mm 6 mps 677 mmHg 79%
    14:00 +26°C° 0.2 mm 6 mps 677 mmHg 77%
    15:00 +24°C° 0.1 mm 6 mps 676 mmHg 80%
    16:00 +23°C° 0.1 mm 6 mps 676 mmHg 82%
    17:00 +23°C° 0.1 mm 5 mps 676 mmHg 85%
    18:00 +22°C° 0.9 mm 5 mps 677 mmHg 87%
    19:00 +22°C° 0.9 mm 5 mps 677 mmHg 89%
    20:00 +22°C° 0.9 mm 5 mps 678 mmHg 91%
    21:00 +22°C° 1.5 mm 5 mps 678 mmHg 91%
    22:00 +22°C° 1.5 mm 6 mps 678 mmHg 91%
    23:00 +22°C° 1.5 mm 6 mps 678 mmHg 90%

    24 July, Wednesday

    Time Temperature Precipitation Wind Pressure Humidity
    00:00 +22°C° 0.5 mm 6 mps 678 mmHg 90%
    01:00 +22°C° 0.5 mm 6 mps 677 mmHg 90%
    02:00 +21°C° 0.5 mm 7 mps 677 mmHg 90%
    03:00 +21°C° 0.1 mm 7 mps 677 mmHg 90%
    04:00 +21°C° 0.1 mm 7 mps 677 mmHg 89%
    05:00 +21°C° 0.1 mm 7 mps 677 mmHg 89%
    06:00 +22°C° 0 mm 7 mps 677 mmHg 88%
    07:00 +22°C° 0 mm 7 mps 678 mmHg 87%
    08:00 +22°C° 0 mm 7 mps 678 mmHg 87%
    09:00 +22°C° 0 mm 7 mps 678 mmHg 84%
    10:00 +23°C° 0 mm 6 mps 678 mmHg 81%
    11:00 +24°C° 0 mm 6 mps 679 mmHg 79%
    12:00 +24°C° 0.1 mm 6 mps 678 mmHg 77%
    13:00 +26°C° 0.1 mm 6 mps 678 mmHg 75%
    14:00 +26°C° 0.1 mm 6 mps 677 mmHg 73%
    15:00 +26°C° 0.1 mm 7 mps 678 mmHg 73%
    16:00 +26°C° 0.1 mm 7 mps 678 mmHg 72%
    17:00 +26°C° 0.1 mm 7 mps 678 mmHg 72%
    18:00 +26°C° 0 mm 6 mps 678 mmHg 75%
    19:00 +24°C° 0 mm 6 mps 679 mmHg 79%
    20:00 +23°C° 0 mm 6 mps 679 mmHg 83%
    21:00 +22°C° 0 mm 6 mps 679 mmHg 85%
    22:00 +22°C° 0 mm 6 mps 679 mmHg 86%
    23:00 +22°C° 0 mm 6 mps 680 mmHg 88%

    25 July, Thursday

    Time Temperature Precipitation Wind Pressure Humidity
    00:00 +22°C° 0 mm 6 mps 679 mmHg 89%
    01:00 +21°C° 0 mm 6 mps 679 mmHg 89%
    02:00 +21°C° 0 mm 6 mps 678 mmHg 90%
    03:00 +21°C° 0 mm 6 mps 679 mmHg 90%
    04:00 +21°C° 0 mm 6 mps 679 mmHg 90%
    05:00 +21°C° 0 mm 6 mps 679 mmHg 90%
    06:00 +22°C° 0 mm 7 mps 679 mmHg 87%
    07:00 +22°C° 0 mm 7 mps 680 mmHg 84%
    08:00 +23°C° 0 mm 7 mps 680 mmHg 80%
    09:00 +24°C° 0 mm 8 mps 681 mmHg 75%
    10:00 +26°C° 0 mm 8 mps 681 mmHg 70%
    11:00 +28°C° 0 mm 8 mps 681 mmHg 64%
    12:00 +28°C° 0 mm 8 mps 681 mmHg 62%
    13:00 +29°C° 0 mm 8 mps 680 mmHg 61%
    14:00 +29°C° 0 mm 8 mps 680 mmHg 59%
    15:00 +29°C° 0.1 mm 8 mps 680 mmHg 60%
    16:00 +28°C° 0.1 mm 7 mps 679 mmHg 62%
    17:00 +28°C° 0.1 mm 7 mps 679 mmHg 64%
    18:00 +27°C° 0 mm 7 mps 680 mmHg 67%
    19:00 +26°C° 0 mm 6 mps 680 mmHg 70%
    20:00 +24°C° 0 mm 6 mps 681 mmHg 74%
    21:00 +24°C° 0 mm 6 mps 681 mmHg 76%
    22:00 +23°C° 0 mm 6 mps 681 mmHg 79%
    23:00 +23°C° 0 mm 5 mps 681 mmHg 81%

    26 July, Friday

    Time Temperature Precipitation Wind Pressure Humidity
    00:00 +22°C° 0 mm 6 mps 680 mmHg 82%
    01:00 +22°C° 0 mm 6 mps 680 mmHg 84%
    02:00 +22°C° 0 mm 6 mps 679 mmHg 85%
    03:00 +22°C° 0 mm 6 mps 679 mmHg 85%
    04:00 +22°C° 0 mm 6 mps 679 mmHg 86%
    05:00 +22°C° 0 mm 6 mps 680 mmHg 86%
    06:00 +22°C° 0 mm 6 mps 680 mmHg 82%
    07:00 +23°C° 0 mm 6 mps 681 mmHg 78%
    08:00 +24°C° 0 mm 7 mps 681 mmHg 74%
    09:00 +26°C° 0 mm 7 mps 681 mmHg 70%
    10:00 +27°C° 0 mm 7 mps 682 mmHg 65%
    11:00 +28°C° 0 mm 7 mps 682 mmHg 61%
    12:00 +29°C° 0.1 mm 7 mps 681 mmHg 60%
    13:00 +29°C° 0.1 mm 7 mps 681 mmHg 58%
    14:00 +29°C° 0.1 mm 7 mps 680 mmHg 57%
    15:00 +29°C° 0.4 mm 7 mps 680 mmHg 59%
    16:00 +28°C° 0.4 mm 7 mps 680 mmHg 61%
    17:00 +28°C° 0.4 mm 7 mps 680 mmHg 63%
    18:00 +27°C° 0.1 mm 7 mps 681 mmHg 67%
    19:00 +26°C° 0.1 mm 6 mps 681 mmHg 71%
    20:00 +23°C° 0.1 mm 6 mps 681 mmHg 75%
    21:00 +23°C° 0 mm 6 mps 681 mmHg 77%
    22:00 +23°C° 0 mm 6 mps 682 mmHg 79%
    23:00 +23°C° 0 mm 6 mps 682 mmHg 81%
    Show more